Flag for Germany Weather past 2 weeks in Wismar, Mecklenburg-Western Pomerania, Germany

Now
55 °F

Light rain. Overcast.


Feels Like: 55 °F
Forecast: 48 / 60 °F
Wind: 2 mph from Southeast

Location: Schwerin

Current Time: May 4, 2015 at 12:01:30 AM

Latest Report: May 3, 2015 at 10:00 PM


Visibility: 3 mi

Pressure: 29.65 "Hg

Humidity: 82%

Dew point: 50 °F

Location of WismarLocation

Historic Weather in Wismar — Graph

°F

Wismar temperature yesterday

Maximum temperature yesterday: 65 °F (at 4:00 PM)
Minimum temperature yesterday: 40 °F (at 1:00 AM)
Average temperature yesterday: 53 °F

Past Weeks' High & Low Weather Summary

 TemperatureHumidityPressure
High65 °F (Apr 21, 4:00 PM)100% (Apr 24, 4:00 AM)30.34 "Hg (Apr 24, 4:00 AM)
Low34 °F (Apr 29, 6:00 AM)31% (Apr 21, 1:00 PM)29.64 "Hg (May 3, 9:00 PM)
Average49 °F71%29.97 "Hg
* Reported Apr 18 10:00 PM — May 3 10:00 PM, Wismar, Weather by CustomWeather, © 2015

Note: Actual official high and low records may vary slightly from our data, if they occured in-between our weather recording intervals... More about our weather records

Advertising

Wismar weather history for previous 24 hours

 ConditionsComfort  
Time TempWeatherWind HumidityBarometerVisibility
10:00 PM
Sun, May 3
55 °FLight rain. Overcast.2 mph82%29.65 "Hg3 mi
9:00 PM58 °FLight rain. Overcast.3 mph67%29.64 "Hg11 mi
8:00 PM61 °FLight rain. Overcast.5 mph53%29.65 "Hg7 mi
7:00 PM63 °FOvercast.6 mph41%29.66 "Hg19 mi
6:00 PM64 °FOvercast.5 mph37%29.69 "Hg25 mi
4:00 PM65 °FPartly sunny.5 mph35%29.74 "Hg18 mi
3:00 PM64 °FPassing clouds.6 mph37%29.76 "Hg19 mi
2:00 PM63 °FPassing clouds.6 mph39%29.78 "Hg18 mi
1:00 PM61 °FScattered clouds.6 mph39%29.81 "Hg19 mi
12:00 PM59 °FPassing clouds.6 mph42%29.83 "Hg22 mi
11:00 AM56 °FPassing clouds.6 mph47%29.85 "Hg25 mi
10:00 AM53 °FPartly sunny.3 mph54%29.88 "Hg17 mi
9:00 AM49 °FPassing clouds.3 mph67%29.89 "Hg14 mi
8:00 AM45 °FSunny.3 mph74%29.88 "Hg16 mi
7:00 AM43 °FScattered clouds.3 mph80%29.88 "Hg14 mi
6:00 AM41 °FPassing clouds.3 mph86%29.89 "Hg11 mi
4:00 AM42 °FPassing clouds.3 mph79%29.90 "Hg15 mi
3:00 AM43 °FPassing clouds.5 mph78%29.90 "Hg17 mi
2:00 AM40 °FPassing clouds.2 mph87%29.92 "Hg8 mi
1:00 AM40 °FClear.2 mph89%29.93 "Hg8 mi
12:00 AM42 °FFog.2 mph87%29.93 "Hg3 mi
Weather by CustomWeather, © 2015

See weather overviewHow to use our weather pages